User: anonymous   Login
Location: Lake Runnemede Observatory
(43.4843°N, 72.3851°W)
Time: 16:20:11
(UTC-04:00)
Language:

SPOT 5 - Orbit

View from above orbital plane
View from above orbital plane
View from above satellite
View from above satellite

Ground track
Ground track

The orbit data is extracted from the following two-line orbital elements,

1 27421U 02021A   15244.55083446  .00000093  00000-0  62400-4 0  9990
2 27421  98.5057 297.3690 0001108 100.0611  35.2839 14.20893606690977
Epoch (UTC): 01 September 2015 13:13:12
Eccentricity: 0.0001108
inclination: 98.5057°
perigee height: 821 km
apogee height: 823 km
right ascension of ascending node: 297.3690°
argument of perigee: 100.0611°
revolutions per day: 14.20893606
mean anomaly at epoch: 35.2839°
orbit number at epoch: 69097

The dashed part of the orbit path shows where the satellite is in the earth's shadow,  

DLR